Randolph, MN

10:51 PM CST on February 12, 2016 (GMT -0600)
Stanton

Weather History for KSYN - September, 2013

Change the Weather History Date:

Wednesday, September 25, 2013

  Actual Average (KLVN) Record (KLVN)
Temperature  
Mean Temperature 58 °F -  
Max Temperature 73 °F 68 °F 89 °F (1956)
Min Temperature 43 °F 44 °F 30 °F (2001)
Degree Days  
Heating Degree Days 7    
Growing Degree Days 8 (Base 50)    
Moisture  
Dew Point 49 °F    
Average Humidity 71    
Maximum Humidity 95    
Minimum Humidity 44    
Precipitation  
Precipitation 0.00 in - - ()
Sea Level Pressure  
Sea Level Pressure 29.93 in    
Wind  
Wind Speed 3 mph (SE)    
Max Wind Speed 10 mph    
Max Gust Speed 16 mph    
Visibility 8 miles    
Events Fog    
Averages and records for this station are not official NWS values.
T = Trace of Precipitation, MM = Missing Value Source: NWS Daily Summary

Daily Weather History Graph

Daily Weather History Graph

Search for Another Location

Airport or City:

Trip Planner

Search our weather history database for the weather conditions in past years. The results will help you decide how hot, cold, wet, or windy it might be!

Date:

Astronomy

Sep. 25, 2013 Rise Set
Actual Time 7:03 AM CDT 7:03 PM CDT
Civil Twilight 6:34 AM CDT 7:32 PM CDT
Nautical Twilight 6:00 AM CDT 8:06 PM CDT
Astronomical Twilight 5:25 AM CDT 8:40 PM CDT
Moon 10:58 PM CDT (9/25) 1:21 PM CDT (9/25)
Length of Visible Light 12h 58m
Length of Day
12h 00m
Waning Gibbous, 64% of the Moon is Illuminated
Sep 25
Waning Gibbous
Sep 26
Last Quarter
Oct 4
New
Oct 11
First Quarter
Oct 18
Full

Hourly Weather History & Observations

Time (CDT) Temp. Dew Point Humidity Pressure Visibility Wind Dir Wind Speed Gust Speed Precip Events Conditions
12:12 AM 49.5 °F 47.5 °F 93% 29.94 in 5.0 mi Calm Calm - N/A   Clear
12:32 AM 49.6 °F 47.7 °F 93% 29.94 in 7.0 mi Calm Calm - N/A   Clear
12:52 AM 49.5 °F 47.1 °F 92% 29.94 in 7.0 mi Calm Calm - N/A   Clear
1:12 AM 48.2 °F 46.2 °F 93% 29.94 in 5.0 mi Calm Calm - N/A   Clear
1:32 AM 49.6 °F 47.8 °F 94% 29.95 in 4.0 mi Calm Calm - N/A   Clear
1:52 AM 48.6 °F 46.8 °F 93% 29.95 in 5.0 mi Calm Calm - N/A   Clear
2:12 AM 47.8 °F 46.0 °F 93% 29.95 in 4.0 mi Calm Calm - N/A   Clear
2:32 AM 46.9 °F 45.1 °F 93% 29.95 in 5.0 mi Calm Calm - N/A   Clear
2:52 AM 46.9 °F 45.1 °F 93% 29.95 in 5.0 mi Calm Calm - N/A   Clear
3:12 AM 46.4 °F 44.6 °F 93% 29.96 in 4.0 mi Calm Calm - N/A   Clear
3:32 AM 46.0 °F 44.2 °F 93% 29.95 in 1.0 mi Calm Calm - N/A   Mist
3:52 AM 45.9 °F 44.1 °F 93% 29.95 in 0.5 mi Calm Calm - N/A Fog Fog
4:12 AM 44.6 °F 42.8 °F 93% 29.96 in 0.8 mi Calm Calm - N/A   Mist
4:32 AM 45.0 °F 43.3 °F 94% 29.96 in 0.5 mi Calm Calm - N/A Fog Fog
4:52 AM 44.8 °F 43.2 °F 94% 29.96 in 2.5 mi Calm Calm - N/A   Clear
5:12 AM 44.6 °F 42.8 °F 93% 29.96 in 0.8 mi Calm Calm - N/A   Mist
5:32 AM 44.6 °F 43.0 °F 94% 29.96 in 0.5 mi Calm Calm - N/A Fog Fog
5:52 AM 44.6 °F 42.8 °F 93% 29.96 in 4.0 mi Calm Calm - N/A   Clear
6:12 AM 43.5 °F 41.9 °F 94% 29.97 in 2.5 mi Calm Calm - N/A   Clear
6:31 AM 43.3 °F 41.9 °F 95% 29.96 in 1.5 mi Calm Calm - N/A   Mist
6:52 AM 43.7 °F 42.3 °F 95% 29.96 in 4.0 mi Calm Calm - N/A   Scattered Clouds
7:12 AM 43.3 °F 41.7 °F 94% 29.96 in 0.2 mi Calm Calm - N/A Fog Fog
7:31 AM 43.3 °F 41.9 °F 95% 29.96 in 0.2 mi Calm Calm - N/A Fog Fog
7:52 AM 44.1 °F 42.8 °F 95% 29.97 in 1.8 mi Calm Calm - N/A   Mist
8:11 AM 46.9 °F 45.5 °F 95% 29.97 in 4.0 mi Calm Calm - N/A   Clear
8:32 AM 50.4 °F 48.9 °F 95% 29.98 in 5.0 mi Calm Calm - N/A   Clear
8:52 AM 53.4 °F 51.8 °F 94% 29.98 in 7.0 mi Calm Calm - N/A   Clear
9:11 AM 55.9 °F 54.3 °F 94% 29.98 in 10.0 mi Calm Calm - N/A   Clear
9:32 AM 59.4 °F 52.5 °F 78% 29.98 in 10.0 mi South 3.5 mph - N/A   Clear
9:52 AM 61.0 °F 52.5 °F 74% 29.98 in 10.0 mi SE 3.5 mph - N/A   Clear
10:11 AM 63.0 °F 52.2 °F 68% 29.97 in 10.0 mi SE 5.8 mph - N/A   Clear
10:32 AM 65.3 °F 52.2 °F 62% 29.97 in 10.0 mi SE 4.6 mph - N/A   Clear
10:52 AM 66.6 °F 51.3 °F 58% 29.97 in 10.0 mi SE 8.1 mph - N/A   Clear
11:11 AM 68.4 °F 51.1 °F 54% 29.97 in 10.0 mi SSE 4.6 mph - N/A   Clear
11:32 AM 69.1 °F 50.7 °F 52% 29.97 in 10.0 mi SSE 8.1 mph - N/A   Clear
11:52 AM 69.6 °F 50.4 °F 50% 29.97 in 10.0 mi SE 8.1 mph - N/A   Clear
12:11 PM 70.2 °F 50.9 °F 50% 29.96 in 10.0 mi SSE 9.2 mph - N/A   Clear
12:32 PM 70.7 °F 50.0 °F 48% 29.96 in 10.0 mi SSE 10.4 mph - N/A   Clear
12:52 PM 71.6 °F 51.3 °F 49% 29.95 in 10.0 mi SE 9.2 mph - N/A   Clear
1:11 PM 71.4 °F 51.1 °F 49% 29.94 in 10.0 mi ESE 10.4 mph - N/A   Clear
1:32 PM 72.3 °F 50.9 °F 47% 29.93 in 10.0 mi SSE 10.4 mph - N/A   Clear
1:52 PM 72.5 °F 51.3 °F 47% 29.92 in 10.0 mi ESE 10.4 mph - N/A   Clear
2:11 PM 72.5 °F 50.9 °F 47% 29.91 in 10.0 mi ESE 9.2 mph - N/A   Clear
2:32 PM 72.9 °F 51.1 °F 46% 29.91 in 10.0 mi SE 10.4 mph - N/A   Clear
2:52 PM 73.2 °F 50.2 °F 44% 29.90 in 10.0 mi ESE 10.4 mph 16.1 mph N/A   Clear
3:12 PM 73.2 °F 50.9 °F 45% 29.90 in 10.0 mi East 6.9 mph - N/A   Clear
3:32 PM 73.2 °F 50.2 °F 44% 29.90 in 10.0 mi SE 9.2 mph - N/A   Clear
3:52 PM 73.2 °F 50.5 °F 45% 29.90 in 10.0 mi SE 9.2 mph - N/A   Clear
4:12 PM 73.6 °F 50.7 °F 45% 29.90 in 10.0 mi SSE 6.9 mph - N/A   Clear
4:32 PM 73.0 °F 50.4 °F 45% 29.88 in 10.0 mi SE 8.1 mph - N/A   Clear
4:51 PM 73.2 °F 50.2 °F 44% 29.88 in 10.0 mi ESE 8.1 mph - N/A   Clear
5:12 PM 72.5 °F 49.1 °F 44% 29.89 in 10.0 mi ESE 8.1 mph - N/A   Clear
5:32 PM 72.1 °F 49.6 °F 45% 29.89 in 10.0 mi ESE 6.9 mph - N/A   Clear
5:51 PM 71.1 °F 51.1 °F 49% 29.88 in 10.0 mi East 10.4 mph - N/A   Clear
6:12 PM 69.4 °F 50.4 °F 51% 29.89 in 10.0 mi ESE 5.8 mph - N/A   Clear
6:32 PM 68.2 °F 50.2 °F 53% 29.89 in 10.0 mi ESE 5.8 mph - N/A   Clear
6:51 PM 66.0 °F 50.2 °F 57% 29.88 in 10.0 mi ESE 5.8 mph - N/A   Clear
7:12 PM 64.4 °F 50.0 °F 59% 29.88 in 10.0 mi ESE 6.9 mph - N/A   Clear
7:32 PM 63.5 °F 49.6 °F 61% 29.88 in 10.0 mi East 6.9 mph - N/A   Clear
7:52 PM 62.6 °F 49.6 °F 63% 29.88 in 10.0 mi East 8.1 mph - N/A   Clear
8:12 PM 61.0 °F 50.0 °F 67% 29.88 in 10.0 mi East 6.9 mph - N/A   Clear
8:32 PM 60.8 °F 50.5 °F 69% 29.88 in 10.0 mi ESE 8.1 mph - N/A   Clear
8:52 PM 61.0 °F 51.1 °F 70% 29.88 in 10.0 mi ESE 8.1 mph - N/A   Clear
9:12 PM 62.1 °F 51.1 °F 67% 29.89 in 10.0 mi ESE 9.2 mph - N/A   Clear
9:32 PM 62.2 °F 51.1 °F 67% 29.89 in 10.0 mi ESE 8.1 mph - N/A   Clear
9:52 PM 61.7 °F 51.1 °F 68% 29.89 in 10.0 mi ESE 9.2 mph - N/A   Clear
10:12 PM 61.7 °F 51.1 °F 68% 29.90 in 10.0 mi SE 9.2 mph - N/A   Clear
10:32 PM 61.5 °F 51.1 °F 69% 29.90 in 10.0 mi ESE 10.4 mph - N/A   Clear
10:52 PM 61.3 °F 51.3 °F 69% 29.90 in 10.0 mi ESE 10.4 mph - N/A   Clear
11:12 PM 60.8 °F 51.6 °F 72% 29.90 in 10.0 mi ESE 10.4 mph 16.1 mph N/A   Clear
11:32 PM 61.0 °F 51.8 °F 72% 29.91 in 10.0 mi ESE 8.1 mph 16.1 mph N/A   Clear
11:51 PM 60.6 °F 51.8 °F 73% 29.92 in 10.0 mi SE 8.1 mph - N/A   Clear